TimeCDT,TemperatureF,Dew PointF,Humidity,Sea Level PressureIn,VisibilityMPH,Wind Direction,Wind SpeedMPH,Gust SpeedMPH,PrecipitationIn,Events,Conditions,WindDirDegrees,DateUTC
12:15 AM,68.5,67.5,96,29.88,10.0,East,6.9,-,N/A,,Overcast,90,2013-08-27 05:15:00
12:35 AM,68.0,67.1,97,29.87,10.0,East,8.1,-,N/A,Rain,Light Rain,90,2013-08-27 05:35:00
12:55 AM,67.3,66.7,98,29.86,10.0,East,5.8,-,N/A,,Drizzle,80,2013-08-27 05:55:00
1:15 AM,66.6,66.2,99,29.85,5.0,East,8.1,-,0.01,Rain,Light Rain,80,2013-08-27 06:15:00
1:35 AM,66.6,66.2,99,29.88,5.0,North,11.5,-,0.03,Rain,Rain,10,2013-08-27 06:35:00
1:55 AM,66.4,66.0,99,29.88,0.8,SSE,10.4,23.0,0.83,Rain,Heavy Rain,150,2013-08-27 06:55:00
2:15 AM,67.1,66.6,98,29.86,2.5,NNE,8.1,11.5,0.19,Rain,Heavy Rain,30,2013-08-27 07:15:00
2:35 AM,66.2,65.8,99,29.83,4.0,NE,8.1,-,0.27,Rain,Light Rain,50,2013-08-27 07:35:00
2:55 AM,66.4,66.2,99,29.87,5.0,Calm,Calm,-,0.29,Rain,Rain,0,2013-08-27 07:55:00
3:15 AM,66.6,66.2,99,29.84,3.0,Calm,Calm,-,0.11,Rain,Light Rain,0,2013-08-27 08:15:00
3:35 AM,66.7,66.4,99,29.83,4.0,East,4.6,-,0.15,Rain,Light Rain,80,2013-08-27 08:35:00
3:55 AM,66.7,66.4,99,29.81,5.0,Calm,Calm,-,0.15,,Overcast,0,2013-08-27 08:55:00
4:15 AM,66.6,66.4,99,29.82,3.0,NNE,3.5,-,N/A,,Overcast,20,2013-08-27 09:15:00
4:35 AM,66.2,66.2,100,29.82,4.0,NNE,3.5,-,N/A,,Overcast,30,2013-08-27 09:35:00
4:55 AM,66.2,66.2,100,29.83,3.0,NE,5.8,-,N/A,,Overcast,40,2013-08-27 09:55:00
5:15 AM,66.2,66.2,100,29.83,3.0,NE,8.1,-,N/A,,Overcast,50,2013-08-27 10:15:00
5:35 AM,66.2,65.8,99,29.84,2.0,ENE,6.9,-,0.01,,Overcast,60,2013-08-27 10:35:00
5:55 AM,66.0,65.7,99,29.84,3.0,ENE,9.2,-,0.01,,Overcast,60,2013-08-27 10:55:00
6:15 AM,65.8,65.7,99,29.84,7.0,ENE,5.8,-,N/A,,Overcast,70,2013-08-27 11:15:00
6:35 AM,65.8,65.5,99,29.85,7.0,ENE,5.8,-,N/A,,Overcast,60,2013-08-27 11:35:00
6:55 AM,66.2,65.7,98,29.86,4.0,NE,5.8,-,N/A,,Overcast,50,2013-08-27 11:55:00
7:15 AM,66.2,66.2,100,29.85,1.8,ENE,6.9,-,N/A,,Overcast,60,2013-08-27 12:15:00
7:35 AM,66.6,66.4,99,29.86,1.5,ENE,5.8,-,N/A,,Overcast,60,2013-08-27 12:35:00
7:55 AM,67.1,66.7,99,29.86,1.8,ENE,3.5,-,N/A,,Overcast,60,2013-08-27 12:55:00
8:15 AM,67.1,67.1,100,29.87,1.5,ENE,5.8,-,N/A,,Overcast,60,2013-08-27 13:15:00
8:35 AM,67.5,67.1,99,29.87,2.0,ENE,5.8,-,N/A,,Overcast,60,2013-08-27 13:35:00
8:55 AM,68.0,67.5,98,29.86,5.0,ENE,5.8,-,N/A,,Overcast,70,2013-08-27 13:55:00
9:15 AM,68.0,67.1,97,29.87,7.0,ENE,5.8,-,N/A,,Overcast,60,2013-08-27 14:15:00
9:35 AM,68.4,67.5,97,29.87,7.0,ENE,6.9,-,N/A,,Overcast,70,2013-08-27 14:35:00
9:55 AM,68.9,67.5,95,29.87,10.0,ENE,5.8,-,N/A,,Overcast,60,2013-08-27 14:55:00
10:15 AM,70.0,68.0,93,29.88,10.0,ENE,8.1,-,N/A,,Overcast,60,2013-08-27 15:15:00
10:35 AM,69.1,67.3,94,29.88,10.0,ENE,9.2,-,N/A,,Overcast,60,2013-08-27 15:35:00
10:55 AM,69.4,67.3,93,29.88,10.0,NE,6.9,-,N/A,,Overcast,50,2013-08-27 15:55:00
11:15 AM,69.4,67.1,92,29.88,10.0,ENE,8.1,-,N/A,,Overcast,70,2013-08-27 16:15:00
11:35 AM,69.4,67.1,92,29.89,10.0,NE,8.1,-,N/A,,Overcast,40,2013-08-27 16:35:00
11:55 AM,69.3,67.3,93,29.89,10.0,ENE,8.1,-,N/A,,Overcast,60,2013-08-27 16:55:00
12:15 PM,70.3,67.3,90,29.88,10.0,ENE,8.1,-,N/A,,Overcast,70,2013-08-27 17:15:00
12:35 PM,71.8,68.0,88,29.88,10.0,NE,4.6,-,N/A,,Mostly Cloudy,40,2013-08-27 17:35:00
12:55 PM,72.7,68.5,87,29.87,10.0,East,5.8,-,N/A,,Scattered Clouds,90,2013-08-27 17:55:00
1:15 PM,73.8,68.9,85,29.87,10.0,NE,5.8,-,N/A,,Clear,50,2013-08-27 18:15:00
1:35 PM,74.7,69.6,84,29.87,10.0,NE,4.6,-,N/A,,Clear,50,2013-08-27 18:35:00
1:55 PM,74.5,68.9,83,29.88,10.0,NE,8.1,-,N/A,,Clear,40,2013-08-27 18:55:00
2:15 PM,74.3,69.3,84,29.88,10.0,ENE,5.8,-,N/A,,Clear,60,2013-08-27 19:15:00
2:35 PM,74.8,69.1,82,29.87,10.0,NNE,6.9,-,N/A,,Clear,30,2013-08-27 19:35:00
2:55 PM,74.7,69.6,84,29.87,10.0,ENE,5.8,-,N/A,,Clear,60,2013-08-27 19:55:00
3:15 PM,75.7,70.0,82,29.87,10.0,NE,8.1,-,N/A,,Clear,40,2013-08-27 20:15:00
3:35 PM,75.2,69.4,82,29.87,10.0,ENE,5.8,-,N/A,,Clear,60,2013-08-27 20:35:00
3:55 PM,75.9,70.0,82,29.87,10.0,NE,4.6,-,N/A,,Clear,50,2013-08-27 20:55:00
4:15 PM,76.1,69.6,80,29.88,10.0,NE,5.8,-,N/A,,Clear,40,2013-08-27 21:15:00
4:35 PM,75.0,68.7,81,29.88,10.0,NE,6.9,-,N/A,,Clear,50,2013-08-27 21:35:00
4:55 PM,73.8,68.2,83,29.89,10.0,ENE,6.9,-,N/A,,Clear,70,2013-08-27 21:55:00
5:15 PM,73.8,68.2,83,29.89,10.0,NE,6.9,-,N/A,,Clear,40,2013-08-27 22:15:00
5:35 PM,73.4,68.0,83,29.90,10.0,NE,4.6,-,N/A,,Clear,40,2013-08-27 22:35:00
5:55 PM,72.9,67.6,84,29.89,10.0,NE,6.9,-,N/A,,Clear,50,2013-08-27 22:55:00
6:15 PM,72.0,67.5,86,29.90,10.0,NE,6.9,-,N/A,,Clear,40,2013-08-27 23:15:00
6:35 PM,70.3,66.9,89,29.90,10.0,NE,4.6,-,N/A,,Clear,40,2013-08-27 23:35:00
6:55 PM,69.1,66.6,92,29.90,10.0,NE,4.6,-,N/A,,Clear,50,2013-08-27 23:55:00
7:15 PM,67.1,66.2,97,29.91,7.0,ENE,4.6,-,N/A,,Mostly Cloudy,60,2013-08-28 00:15:00
7:35 PM,66.6,66.2,99,29.91,1.0,NE,4.6,-,N/A,,Overcast,50,2013-08-28 00:35:00
7:55 PM,66.2,65.7,98,29.92,0.5,NE,4.6,-,N/A,Fog,Fog,40,2013-08-28 00:55:00
8:15 PM,65.8,65.7,99,29.92,0.8,Calm,Calm,-,N/A,,Overcast,0,2013-08-28 01:15:00
8:35 PM,65.3,65.1,99,29.93,0.8,NE,5.8,-,N/A,,Overcast,50,2013-08-28 01:35:00
8:55 PM,64.9,64.8,99,29.94,0.8,NE,3.5,-,N/A,,Overcast,40,2013-08-28 01:55:00
9:15 PM,64.9,64.8,99,29.94,0.5,Calm,Calm,-,N/A,Fog,Fog,0,2013-08-28 02:15:00
9:35 PM,65.3,64.9,99,29.94,0.2,Calm,Calm,-,N/A,Fog,Fog,0,2013-08-28 02:35:00
9:55 PM,65.3,65.3,100,29.94,0.2,Calm,Calm,-,N/A,Fog,Fog,0,2013-08-28 02:55:00
10:15 PM,65.3,65.3,100,29.94,0.2,Calm,Calm,-,N/A,Fog,Fog,0,2013-08-28 03:15:00
10:35 PM,65.5,65.5,100,29.94,0.2,Calm,Calm,-,N/A,Fog,Fog,0,2013-08-28 03:35:00
10:55 PM,65.5,65.5,100,29.95,0.2,Calm,Calm,-,N/A,Fog,Fog,0,2013-08-28 03:55:00
11:15 PM,65.3,65.3,100,29.95,0.5,Calm,Calm,-,N/A,Fog,Fog,0,2013-08-28 04:15:00
11:35 PM,65.3,65.3,100,29.96,3.0,Calm,Calm,-,N/A,,Overcast,0,2013-08-28 04:35:00
11:55 PM,65.5,65.5,100,29.96,0.5,Calm,Calm,-,N/A,Fog,Fog,0,2013-08-28 04:55:00